| time (UTC) | temp F | wind direction | speed MPH | gust MPH | rain 1hr in | rain 24hr in | rain mn in | humidity % | barometer mb |
| 20260831151542 | 77 | 203 | 2.0 | 6.0 | 0.00 | 0.16 | 0.16 | 76 | 1013.3 |
| 20260831150044 | 76 | 233 | 3.0 | 7.0 | 0.00 | 0.16 | 0.16 | 77 | 1013.5 |
| 20260831144542 | 75 | 222 | 2.0 | 7.0 | 0.00 | 0.16 | 0.16 | 78 | 1013.3 |
| 20260831143050 | 75 | 179 | 2.0 | 6.0 | 0.00 | 0.16 | 0.16 | 80 | 1013.4 |
| 20260831141551 | 74 | 206 | 2.0 | 7.0 | 0.00 | 0.16 | 0.16 | 81 | 1013.3 |
| 20260831140043 | 73 | 219 | 2.0 | 5.0 | 0.00 | 0.16 | 0.16 | 81 | 1013.3 |
| 20260831134545 | 73 | 198 | 3.0 | 6.0 | 0.00 | 0.16 | 0.16 | 83 | 1013.3 |
| 20260831133044 | 72 | 208 | 2.0 | 7.0 | 0.00 | 0.16 | 0.16 | 84 | 1013.3 |
| 20260831131551 | 72 | 176 | 3.0 | 6.0 | 0.00 | 0.16 | 0.16 | 84 | 1013.2 |
| 20260831130045 | 71 | 195 | 2.0 | 6.0 | 0.00 | 0.16 | 0.16 | 85 | 1013.1 |
| 20260831124544 | 71 | 221 | 2.0 | 7.0 | 0.00 | 0.17 | 0.16 | 86 | 1013.5 |
| 20260831123043 | 70 | 204 | 2.0 | 5.0 | 0.01 | 0.17 | 0.16 | 87 | 1013.5 |
| 20260831121545 | 70 | 0 | 1.0 | 6.0 | 0.01 | 0.17 | 0.16 | 87 | 1013.4 |
| 20260831120053 | 70 | 210 | 2.0 | 5.0 | 0.01 | 0.17 | 0.16 | 87 | 1013.5 |
| 20260831114543 | 70 | 182 | 2.0 | 6.0 | 0.02 | 0.19 | 0.16 | 87 | 1013.6 |
| 20260831113048 | 70 | 186 | 1.0 | 3.0 | 0.02 | 0.18 | 0.15 | 87 | 1013.7 |
| 20260831111545 | 70 | 182 | 1.0 | 2.0 | 0.06 | 0.18 | 0.15 | 87 | 1013.6 |
| 20260831110043 | 70 | 152 | 0.0 | 4.0 | 0.14 | 0.18 | 0.15 | 87 | 1013.6 |
| 20260831104541 | 69 | 188 | 1.0 | 2.0 | 0.14 | 0.32 | 0.14 | 87 | 1013.7 |
| 20260831103044 | 70 | 203 | 2.0 | 3.0 | 0.13 | 0.31 | 0.13 | 87 | 1014.2 |
| 20260831101544 | 70 | 0 | 0.0 | 3.0 | 0.09 | 0.27 | 0.09 | 87 | 1014.7 |
| 20260831100045 | 70 | 290 | 0.0 | 2.0 | 0.01 | 0.19 | 0.01 | 87 | 1014.8 |
| 20260831094541 | 70 | 0 | 0.0 | 0.0 | 0.00 | 0.26 | 0.00 | 87 | 1013.8 |
| 20260831093049 | 70 | 0 | 0.0 | 2.0 | 0.00 | 0.26 | 0.00 | 87 | 1013.6 |
| 20260831091545 | 70 | 0 | 0.0 | 0.0 | 0.00 | 0.26 | 0.00 | 87 | 1013.9 |
| 20260831090043 | 70 | 0 | 0.0 | 1.0 | 0.00 | 0.26 | 0.00 | 87 | 1013.9 |
| 20260831084544 | 70 | 0 | 0.0 | 1.0 | 0.00 | 0.29 | 0.00 | 87 | 1013.9 |
| 20260831083045 | 70 | 0 | 0.0 | 1.0 | 0.00 | 0.29 | 0.00 | 87 | 1013.7 |
| 20260831081543 | 70 | 119 | 0.0 | 1.0 | 0.00 | 0.29 | 0.00 | 87 | 1013.8 |
| 20260831080048 | 70 | 0 | 0.0 | 1.0 | 0.00 | 0.29 | 0.00 | 87 | 1013.8 |
| 20260831074545 | 70 | 0 | 0.0 | 1.0 | 0.00 | 0.31 | 0.00 | 87 | 1014.1 |
| 20260831073050 | 70 | 0 | 0.0 | 0.0 | 0.00 | 0.31 | 0.00 | 87 | 1014.4 |
| 20260831071542 | 70 | 0 | 0.0 | 0.0 | 0.00 | 0.31 | 0.00 | 87 | 1014.6 |
| 20260831070048 | 70 | 0 | 0.0 | 0.0 | 0.00 | 0.31 | 0.00 | 87 | 1014.8 |
| 20260831064544 | 71 | 0 | 0.0 | 0.0 | 0.00 | 0.31 | 0.00 | 87 | 1014.9 |
| 20260831063040 | 71 | 0 | 0.0 | 0.0 | 0.00 | 0.31 | 0.00 | 87 | 1015.1 |
| 20260831061542 | 71 | 0 | 0.0 | 1.0 | 0.00 | 0.31 | 0.00 | 87 | 1015.1 |
| 20260831060054 | 71 | 0 | 0.0 | 0.0 | 0.00 | 0.31 | 0.00 | 87 | 1015.2 |
| 20260831054544 | 72 | 0 | 0.0 | 1.0 | 0.00 | 0.31 | 0.00 | 86 | 1015.1 |
| 20260831053047 | 72 | 0 | 0.0 | 1.0 | 0.00 | 0.31 | 0.00 | 86 | 1015.1 |
| 20260831051552 | 72 | 0 | 0.0 | 0.0 | 0.00 | 0.31 | 0.00 | 85 | 1015.0 |
| 20260831050045 | 72 | 0 | 0.0 | 1.0 | 0.00 | 0.31 | 0.00 | 85 | 1015.1 |
| 20260831044551 | 73 | 0 | 1.0 | 5.0 | 0.00 | 0.31 | 0.31 | 85 | 1015.1 |
| 20260831043047 | 73 | 275 | 0.0 | 5.0 | 0.00 | 0.31 | 0.31 | 84 | 1014.9 |
| 20260831041635 | 73 | 274 | 2.0 | 6.0 | 0.00 | 0.31 | 0.31 | 84 | 1014.4 |
| 20260831040043 | 73 | 252 | 2.0 | 5.0 | 0.00 | 0.31 | 0.31 | 84 | 1014.5 |
| 20260831034545 | 73 | 212 | 2.0 | 5.0 | 0.00 | 0.31 | 0.31 | 85 | 1014.0 |
| 20260831033042 | 72 | 225 | 2.0 | 7.0 | 0.00 | 0.31 | 0.31 | 85 | 1013.8 |
| 20260831031545 | 72 | 202 | 2.0 | 6.0 | 0.00 | 0.31 | 0.31 | 85 | 1014.0 |
| 20260831030050 | 72 | 278 | 1.0 | 5.0 | 0.00 | 0.31 | 0.31 | 85 | 1014.6 |
| 20260831024602 | 73 | 245 | 2.0 | 8.0 | 0.00 | 0.31 | 0.31 | 85 | 1015.0 |
| 20260831023045 | 73 | 229 | 1.0 | 8.0 | 0.00 | 0.31 | 0.31 | 85 | 1014.9 |
| 20260831021549 | 72 | 216 | 2.0 | 6.0 | 0.00 | 0.31 | 0.31 | 85 | 1014.6 |
| 20260831020043 | 72 | 227 | 2.0 | 7.0 | 0.00 | 0.31 | 0.31 | 85 | 1014.8 |
| 20260831014549 | 72 | 234 | 3.0 | 9.0 | 0.00 | 0.31 | 0.31 | 85 | 1014.5 |
| 20260831013052 | 72 | 200 | 5.0 | 13.0 | 0.00 | 0.31 | 0.31 | 85 | 1014.7 |
| 20260831011551 | 72 | 274 | 3.0 | 12.0 | 0.00 | 0.31 | 0.31 | 86 | 1014.6 |
| 20260831010114 | 72 | 249 | 3.0 | 9.0 | 0.00 | 0.31 | 0.31 | 86 | 1014.2 |
| 20260831004544 | 72 | 182 | 2.0 | 10.0 | 0.00 | 0.31 | 0.31 | 86 | 1014.2 |
| 20260831003044 | 72 | 223 | 2.0 | 7.0 | 0.00 | 0.31 | 0.31 | 86 | 1013.8 |
| 20260831001548 | 73 | 259 | 3.0 | 9.0 | 0.00 | 0.31 | 0.31 | 85 | 1013.8 |
| 20260830234543 | 74 | 200 | 1.0 | 6.0 | 0.00 | 0.31 | 0.31 | 84 | 1013.7 |
| 20260830233051 | 74 | 226 | 1.0 | 7.0 | 0.00 | 0.31 | 0.31 | 84 | 1013.9 |
| 20260830231548 | 74 | 224 | 1.0 | 8.0 | 0.00 | 0.31 | 0.31 | 85 | 1013.9 |
| 20260830230053 | 74 | 224 | 1.0 | 7.0 | 0.00 | 0.31 | 0.31 | 85 | 1013.8 |
| 20260830224549 | 74 | 225 | 1.0 | 5.0 | 0.00 | 0.41 | 0.31 | 85 | 1013.8 |
| 20260830223125 | 74 | 138 | 3.0 | 6.0 | 0.00 | 0.41 | 0.31 | 84 | 1013.9 |
| 20260830221552 | 74 | 164 | 2.0 | 4.0 | 0.00 | 0.41 | 0.31 | 84 | 1014.1 |
| 20260830220046 | 74 | 217 | 2.0 | 6.0 | 0.00 | 0.41 | 0.31 | 83 | 1014.0 |
| 20260830214543 | 74 | 214 | 2.0 | 6.0 | 0.00 | 0.48 | 0.31 | 82 | 1013.9 |
| 20260830213043 | 75 | 136 | 3.0 | 11.0 | 0.00 | 0.48 | 0.31 | 81 | 1013.8 |
| 20260830211542 | 75 | 203 | 4.0 | 12.0 | 0.00 | 0.48 | 0.31 | 80 | 1013.9 |
| 20260830210045 | 75 | 243 | 5.0 | 13.0 | 0.00 | 0.48 | 0.31 | 79 | 1013.9 |
| 20260830204547 | 75 | 259 | 4.0 | 13.0 | 0.00 | 0.48 | 0.31 | 79 | 1013.8 |
| 20260830203045 | 76 | 247 | 6.0 | 16.0 | 0.00 | 0.48 | 0.31 | 76 | 1013.8 |
| 20260830201546 | 77 | 214 | 5.0 | 14.0 | 0.00 | 0.48 | 0.31 | 75 | 1013.9 |
| 20260830200043 | 78 | 242 | 5.0 | 20.0 | 0.00 | 0.48 | 0.31 | 72 | 1014.0 |
| 20260830194600 | 79 | 231 | 9.0 | 20.0 | 0.00 | 0.48 | 0.31 | 69 | 1014.1 |
| 20260830193059 | 80 | 256 | 10.0 | 22.0 | 0.00 | 0.48 | 0.31 | 68 | 1014.0 |
| 20260830191542 | 81 | 263 | 11.0 | 26.0 | 0.00 | 0.48 | 0.31 | 66 | 1014.0 |
| 20260830190043 | 81 | 236 | 10.0 | 24.0 | 0.00 | 0.48 | 0.31 | 64 | 1014.0 |
| 20260830184557 | 81 | 171 | 11.0 | 25.0 | 0.00 | 0.48 | 0.31 | 63 | 1013.9 |
| 20260830183046 | 83 | 216 | 9.0 | 18.0 | 0.00 | 0.48 | 0.31 | 62 | 1013.6 |
| 20260830181542 | 84 | 253 | 10.0 | 23.0 | 0.00 | 0.48 | 0.31 | 58 | 1013.4 |
| 20260830180042 | 86 | 259 | 5.0 | 13.0 | 0.00 | 0.48 | 0.31 | 57 | 1013.2 |
| 20260830174544 | 86 | 203 | 7.0 | 20.0 | 0.00 | 0.48 | 0.31 | 58 | 1013.0 |
| 20260830173044 | 86 | 271 | 6.0 | 17.0 | 0.00 | 0.48 | 0.31 | 59 | 1013.0 |
| 20260830171609 | 85 | 262 | 5.0 | 13.0 | 0.00 | 0.48 | 0.31 | 62 | 1013.1 |
| 20260830170048 | 84 | 197 | 5.0 | 15.0 | 0.00 | 0.48 | 0.31 | 62 | 1013.3 |
| 20260830164540 | 84 | 223 | 5.0 | 14.0 | 0.00 | 0.48 | 0.31 | 62 | 1013.3 |
| 20260830163050 | 82 | 262 | 5.0 | 15.0 | 0.00 | 0.48 | 0.31 | 64 | 1013.4 |
| 20260830161543 | 81 | 252 | 3.0 | 10.0 | 0.00 | 0.48 | 0.31 | 67 | 1013.5 |
| 20260830160043 | 81 | 217 | 4.0 | 8.0 | 0.00 | 0.48 | 0.31 | 67 | 1013.6 |
| 20260830154548 | 80 | 161 | 3.0 | 8.0 | 0.00 | 0.48 | 0.31 | 71 | 1013.9 |
| 20260830153047 | 79 | 181 | 3.0 | 7.0 | 0.00 | 0.48 | 0.31 | 72 | 1013.7 |